Location: Betchat
(43.0929°N, 1.0118°E)
Time: 23:10:22
(UTC+00:00)

Daily predictions for brighter satellites

Satellite Brightness Start Highest point End
(mag) Time Altitude Azimuth Time Altitude Azimuth Time Altitude Azimuth
Cosmos 2016 Rocket 4.2 17:42:46 10° N 17:49:04 86° W 17:55:24 10° S
SAR-Lupe-5 4.2 17:52:49 10° N 17:55:17 75° WNW 17:57:40 10° SSW
SeaSat 1 2.5 17:51:28 10° SE 17:56:17 62° ENE 18:01:07 10° NNW
NOSS 0 Rocket 4.0 17:50:11 10° NNW 17:56:28 80° ENE 18:02:41 10° SSE
Tiangong -1.3 17:53:59 10° WSW 17:57:01 41° SSE 18:00:02 10° E
SJ-6B 4.5 17:56:18 10° E 17:57:18 11° ENE 17:58:18 10° NE
IRS-P3 4.1 17:55:14 10° SSE 18:00:33 81° ENE 18:05:54 10° NNW
PSLV R/B 4.2 17:58:23 10° SE 18:01:57 29° ENE 18:05:32 10° N
Cosmos 2233 Rocket 4.1 17:56:36 10° N 18:02:55 90° WSW 18:09:14 10° S
NOSS 3-3 (C) 4.2 17:58:36 10° SW 18:03:41 61° NW 18:09:45 10° NNE
Meteor 2-1 Rocket 4.3 17:58:42 10° N 18:04:34 80° E 18:10:30 10° SSE
Cosmos 1125 Rocket 3.4 17:59:50 10° NNW 18:05:03 75° ENE 18:10:14 10° SSE
Cosmos 1570 Rocket 4.1 18:00:11 10° S 18:05:19 56° ESE 18:10:28 10° NNE
Cosmos 2228 4.2 18:02:19 10° NNE 18:05:27 20° ENE 18:08:34 10° ESE
Cosmos 1356 Rocket 3.9 18:02:05 10° NNW 18:06:01 63° W 18:09:56 10° S
Cosmos 2285 Rocket 4.0 17:59:51 10° NNW 18:06:16 67° ENE 18:12:35 10° SSE
CZ-2D R/B 3.6 18:03:00 10° SE 18:06:44 45° ENE 18:10:34 10° N
COSMO-SKYMED 1 2.7 18:02:48 10° NNE 18:06:46 44° E 18:10:41 10° S
Cosmos 2344 4.3 18:00:01 10° S 18:07:01 31° ESE 18:13:10 10° NE
Cosmos 2151 Rocket 4.2 18:05:31 10° NNW 18:09:58 63° W 18:14:24 10° S
YAOGAN 1 2.5 18:06:39 10° SSE 18:10:50 62° ENE 18:15:03 10° N
Cosmos 2263 Rocket 3.4 18:07:18 10° SSE 18:11:27 21° E 18:15:37 10° NE
Cosmos 1975 Rocket 3.9 18:09:14 10° SSE 18:12:56 28° E 18:16:37 10° NNE
Cosmos 1455 Rocket 3.3 18:09:14 10° N 18:13:20 43° ENE 18:17:26 10° SSE
SAR-Lupe-1 4.1 18:12:10 10° SSE 18:15:43 85° WSW 18:19:18 10° NNW
USA 234 3.3 18:09:11 10° SE 18:15:43 87° SW 18:22:20 10° NW
Cosmos 1980 3.7 18:10:59 10° NNW 18:16:38 71° ENE 18:22:15 10° SSE
Cosmos 773 Rocket 4.0 18:16:35 10° S 18:21:45 61° ESE 18:26:58 10° NNE
Cosmos 2237 Rocket 2.2 18:16:08 10° NNW 18:21:50 72° ENE 18:27:30 10° SSE
SJ-7 4.2 18:18:18 10° SSE 18:21:54 55° ENE 18:25:30 10° N
COSMOS 2428 3.8 18:16:42 10° NW 18:22:11 48° WSW 18:27:39 10° S
Spot 4 Rocket 4.0 18:17:31 10° SSE 18:22:33 65° ENE 18:27:37 10° N
NOAA 6 4.1 18:18:40 10° SSE 18:23:39 54° ENE 18:28:41 10° N
ARIANE 5 R/B 4.1 18:22:26 10° SSW 18:27:12 39° W 18:31:56 10° NNW
Cosmos 2208 Rocket 4.0 18:22:33 10° S 18:27:42 63° ESE 18:32:57 10° NNE
Okean 1 Rocket 3.7 18:25:25 10° NNW 18:29:44 59° W 18:33:59 10° S
Meteor 1-27 4.2 18:25:53 10° N 18:31:40 67° ENE 18:37:27 10° SSE
Meteor 2-17 Rocket 4.4 18:28:13 10° S 18:34:09 60° E 18:40:06 10° NNE
CRYOSAT 2 4.4 18:30:45 10° NNE 18:35:35 58° E 18:40:23 10° S
Cosmos 44 Rocket 3.4 18:31:56 10° SW 18:36:50 84° WNW 18:41:55 10° NNE
Cosmos 1346 Rocket 3.2 18:33:40 10° SSE 18:36:55 33° E 18:40:09 10° NNE
Cosmos 1602 2.8 18:37:52 10° S 18:40:36 59° E 18:43:15 11° NNE
CZ-4C R/B 3.8 18:38:20 10° W 18:41:56 23° NNW 18:46:14 10° NNE
Cosmos 2227 Rocket 2.1 18:38:21 10° SSW 18:43:55 67° ESE 18:49:32 10° NNE
Cosmos 1464 Rocket 4.1 18:38:11 10° N 18:44:27 57° ENE 18:50:36 10° SSE
SL-16 R/B 2.8 18:43:10 10° N 18:48:20 35° NE 18:50:50 24° E
Helios 1A Rocket 2.8 18:49:53 37° ESE 18:49:53 37° ESE 18:52:53 10° S
NOSS 3-4 (A) 3.8 18:45:16 10° NW 18:52:10 80° NE 19:00:17 10° SE
NOSS 3-4 (C) 3.8 18:45:33 10° NW 18:52:28 79° NE 19:00:35 10° SE
Aureole 3 Rocket 4.0 18:51:26 10° NNW 18:54:45 36° W 18:57:37 10° SSW
Cosmos 2150 Rocket 3.8 18:50:46 10° NNW 18:55:56 73° ENE 19:01:02 10° SSE
Cosmos 2298 Rocket 3.9 18:54:41 10° NNW 19:00:00 75° ENE 19:05:17 10° SSE
Resurs 01 Rocket 1.7 18:58:23 10° S 19:02:46 80° WSW 19:07:11 10° NNW
BREEZE-M DEB (TANK) 3.5 19:01:33 10° SW 19:05:07 56° SE 19:11:13 22° ENE
Cosmos 1782 2.3 19:04:45 10° N 19:08:21 74° E 19:09:32 39° SSE
Gbstr 26 Del rocket 4.2 19:04:12 10° SW 19:10:52 73° SE 19:15:03 29° ENE
CSL-04 Debris 4.4 19:12:12 38° ESE 19:13:27 44° ENE 19:18:34 10° N
Atlas Centaur 2 4.3 19:10:33 10° WSW 19:16:44 26° SSW 19:20:55 15° SSE
CSL-04 Rocket 3.7 19:17:14 41° ESE 19:18:37 52° ENE 19:23:43 10° N
ARIANE 6 FM1 Upper Stage 3.7 19:18:54 10° NNW 19:21:31 30° N 19:21:31 30° N
Cosmos 2297 Rocket 4.2 19:24:09 10° WSW 19:28:51 26° NW 19:33:34 10° N
Cosmos 2058 2.7 19:25:49 10° S 19:29:42 79° W 19:29:54 75° NW
SJ-6B 3.4 19:28:11 20° SSW 19:30:14 46° W 19:33:35 10° NNW
SPOT 5 2.8 19:31:23 65° E 19:31:32 66° ENE 19:36:34 10° N
Tsikada Rocket 3.8 19:27:26 10° S 19:33:29 64° E 19:39:36 10° NNE
Tiangong -0.4 19:30:37 10° W 19:32:34 33° WSW 19:32:34 33° WSW
Cosmos 1943 4.3 19:30:00 10° N 19:33:43 28° NNE 19:33:43 28° NNE
Cosmos 2084 4.0 19:32:03 10° SSW 19:35:02 45° SSW 19:35:02 45° SSW
Cosmos 2219 3.0 19:39:17 10° SSW 19:44:59 77° ESE 19:45:34 69° ENE
Cosmos 1544 Rocket 3.8 19:41:51 10° NNW 19:46:04 67° W 19:46:04 67° W
BREEZE M DEB (TANK) 4.1 19:32:08 10° SW 19:48:30 52° SSE 19:49:17 50° SE
Cosmos 2263 Rocket 2.7 19:49:17 10° SW 19:54:51 58° WNW 19:58:28 22° N
Orbus 7S? 4.3 19:51:21 10° NW 19:56:52 53° W 19:56:52 53° W
Feng Yun 1-1 Rocket 4.4 20:06:22 70° N 20:06:22 70° N 20:11:34 10° NNW
Terra 4.3 20:10:00 13° N 20:10:00 13° N 20:10:27 10° N
Cosmos 1634 Rocket 3.9 20:03:05 10° N 20:09:12 84° NNW 20:09:12 84° NNW
Cosmos 2082 4.3 20:07:24 10° SSW 20:11:25 47° SW 20:11:25 47° SW
Cosmos 2344 4.0 20:13:21 10° WSW 20:20:58 53° NW 20:24:32 29° NNE
Cosmos 2227 Rocket 4.4 20:24:13 10° W 20:28:28 21° NW 20:32:45 10° N
SL-16 R/B 3.4 20:27:16 10° NW 20:32:24 37° WSW 20:32:45 36° WSW
